Regional Weather Roundup
Issued by NWS

Home | Current Version | Previous Version | Text Only | Print | Product List | Glossary Off
Versions: 1 2 3 4 5 6 7 8 9 10 11 12 13 14 15 16 17 18 19 20 21 22 23 24 25 26 27 28 29 30 31 32 33 34 35 36 37 38 39 40 41 42 43 44 45 46 47 48 49 50

000
ASUS43 KDMX 010407
RWRIA

WEATHER ROUNDUP FOR IOWA
NATIONAL WEATHER SERVICE DES MOINES IA
1000 PM CST SAT JAN 31 2015

NOTE: "FAIR" INDICATES FEW OR NO CLOUDS BELOW 12,000 FEET WITH NO
SIGNIFICANT WEATHER AND/OR OBSTRUCTIONS TO VISIBILITY.

* - THESE STATIONS ARE NOT NWS STATIONS...THUS NOT UNDER NWS
QUALITY CONTROL.  THEY ALSO DO NOT REPORT WEATHER SUCH
AS PRECIPITATION OR FOG.

IAZ001>003-012>014-020>022-031>034-043>046-010500-
   NORTHWEST IOWA

CITY           SKY/WX    TMP DP  RH WIND       PRES   REMARKS
CARROLL *      LGT SNOW  32  32 100 E12       29.94F WCI  23
CHEROKEE *     LGT SNOW  30  30 100 NE15G22   29.97F WCI  19
DENISON *      LGT SNOW  32  32 100 E9        29.91F WCI  24
LE MARS *      LGT SNOW  28  28 100 NE17G23   29.97F WCI  16
ORANGE CITY *  LGT SNOW  28  25  86 E18G24    29.97F WCI  16
SHELDON *      LGT SNOW  27  27 100 NE20      29.98F WCI  13
SIOUX CITY     LGT SNOW  31  29  92 NE16      29.94F VSB 1   WCI  20
SPENCER        LGT SNOW  27  23  85 NE22G31   30.01F FOG     WCI  13
STORM LAKE *   LGT SNOW  30  28  93 NE20      29.95F VSB 3/4 WCI  18
$$

IAZ055>058-069>071-079>083-090>094-010500-
   SOUTHWEST IOWA

CITY           SKY/WX    TMP DP  RH WIND       PRES   REMARKS
ATLANTIC *     LGT SNOW  32  32 100 E6        29.91F WCI  26
AUDUBON *      LGT SNOW  32  30  93 E5        29.93F WCI  27
CLARINDA *     LGT SNOW  34  34 100 S7        29.93F WCI  28
COUNCIL BLFS * LGT SNOW  32  32 100 E6        29.88F WCI  26
CRESTON *      LGT SNOW  32  32 100 S14       29.91F WCI  22
HARLAN  *      LGT SNOW  32  32 100 E7        29.95F WCI  26
LAMONI         LGT SNOW  32  32 100 SE10      29.93F VSB 3/4 WCI  24
RED OAK *      LGT SNOW  34  34 100 SE7       29.91F WCI  28
SHENANDOAH *   LGT SNOW  34  34 100 SE10      29.91F WCI  26
$$

IAZ047>049-059>061-072>074-084-010500-
   CENTRAL IOWA

CITY           SKY/WX    TMP DP  RH WIND       PRES   REMARKS
AMES           LGT SNOW  32  31  96 E7        29.99F VSB 3/4 WCI  26
ANKENY *       LGT SNOW  32  32 100 MISG      29.98F VSB 1
CHARITON *     LGT SNOW  34  32  93 SE13      29.95F WCI  25
DES MOINES     LGT SNOW  34  31  88 E7        29.97F VSB 3/4 WCI  28
GRINNELL*      LGT SNOW  32  32 100 E7        30.00F VSB 3/4 WCI  26
KNOXVILLE *    LGT SNOW  32  32 100 SE9G17    29.95F WCI  24
MARSHALLTOWN   LGT SNOW  32  32 100 E9        30.00F VSB 3/4 WCI  24
PELLA *        HVY RAIN  32  32 100 SE6       29.99F WCI  26
PERRY *        LGT SNOW  34  34 100 E8        29.96F WCI  27
$$

IAZ004>006-015-016-023>025-035-036-010500-
   NORTH CENTRAL IOWA

CITY           SKY/WX    TMP DP  RH WIND       PRES   REMARKS
ALGONA *       LGT SNOW  28  28 100 NE15G21   30.03S WCI  17
CLARION *      LGT SNOW  30  30 100 E17G24    30.01S VSB 1   WCI  18
ESTHERVILLE    LGT SNOW  24  23  96 NE20      30.03F FOG     WCI  10
FORT DODGE *   CLOUDY    30  27  86 CALM      29.99F
MASON CITY     LGT SNOW  27  25  92 E17       30.06S VSB 1   WCI  14
FOREST CITY *  LGT SNOW  28  27  93 NE14G21   30.04S WCI  17
IOWA FALLS *   LGT SNOW  32  32 100 NE6       30.01F VSB 1   WCI  26
$$

IAZ007>011-017>019-026>030-037>042-050>054-066-010500-
   NORTHEAST IOWA

CITY           SKY/WX    TMP DP  RH WIND       PRES   REMARKS
CEDAR RAPIDS   LGT SNOW  32  32 100 SE7       30.04F FOG     WCI  26
CHARLES CITY * LGT SNOW  28  28 100 NE15      30.06S VSB 3/4 WCI  17
CLINTON *      CLOUDY    34  30  86 SE6       30.12F WCI  29
DECORAH *      LGT SNOW  27  27 100 NE8G15    30.08F WCI  18
DUBUQUE        LGT SNOW  30  28  92 E9        30.08S VSB 3/4 WCI  22
MONTICELLO *   LGT SNOW  32  32 100 E7        30.07F WCI  26
OELWEIN *      LGT SNOW  30  30 100 E14       30.06R VSB 1   WCI  20
WATERLOO       LGT SNOW  30  30 100 E10       30.05R VSB 3/4 WCI  21
$$

IAZ064-065-067-068-078-010500-
   EAST CENTRAL IOWA

CITY           SKY/WX    TMP DP  RH WIND       PRES   REMARKS
DAVENPORT      MIX PCPN  32  30  92 SE5       30.09F FOG     WCI  27
IOWA CITY      LGT SNOW  33  32  96 SE7       30.07F FOG     WCI  27
MT. PLEASANT * MIX PCPN  32  32 100 SE9       30.06F WCI  24
MUSCATINE *    MIX PCPN  34  34 100 SE7G13    30.09F WCI  28
QUAD CITIES    LGT RAIN  33  31  92 SE3       30.09F FOG
$$

IAZ062-063-075>077-085>089-095>099-010500-
   SOUTHEAST IOWA

CITY           SKY/WX    TMP DP  RH WIND       PRES   REMARKS
BURLINGTON     LGT SNOW  33  32  96 S8        30.07F FOG     WCI  26
FAIRFIELD *    LGT SNOW  32  32 100 SE12      30.03F WCI  23
FORT MADISON * LGT SNOW  34  32  93 SE8       30.08F WCI  27
KEOKUK *       LGT SNOW  34  32  93 SE7       30.06F WCI  28
OSKALOOSA *    LGT SNOW  32  32 100 SE10      30.00F WCI  24
CENTERVILLE *  LGT SNOW  32  32 100 SE8       29.98F WCI  25
OTTUMWA        LGT SNOW  33  33 100 SE13      30.00F FOG     WCI  24
WASHINGTON *   LGT SNOW  34  34 100 SE9       30.05F VSB 3/4 WCI  26
$$

ABBREVIATIONS USED IN REMARKS
   TC - TEMPERATURES IN CELSIUS
  WCI - WIND CHILL INDEX
   HX - HEAT INDEX
  VSB - VISIBILITY
$$



USA.gov is the U.S. government's official web portal to all federal, state and local government web resources and services.